User: anonymous   Login
Location: Hackbridge
(51.3833°N, 0.1500°W)
Time: 12:44:05
(UTC+00:00)
Language:

Cosmos 1459 Rocket - Orbit

View from above orbital plane
View from above orbital plane
View from above satellite
View from above satellite

Ground track
Ground track

The orbit data is extracted from the following two-line orbital elements,

1 14059U 83042B   19339.89575322 +.00000041 +00000-0 +25884-4 0  9998
2 14059 082.9708 112.6086 0041483 253.5678 106.0919 13.78673132839732
Epoch (UTC): 05 December 2019 21:29:53
Eccentricity: 0.0041483
inclination: 82.9708°
perigee height: 938 km
apogee height: 999 km
right ascension of ascending node: 112.6086°
argument of perigee: 253.5678°
revolutions per day: 13.78673132
mean anomaly at epoch: 106.0919°
orbit number at epoch: 83973

The dashed part of the orbit path shows where the satellite is in the earth's shadow,  

DLR